Flag for Brazil Weather past 2 weeks in Itabuna, Bahia, Brazil

Now
81 °F

Passing clouds.


Feels Like: 85 °F
Forecast: 72 / 89 °F
Wind: 5 mph from Southeast

Location: Salvador Aeroporto

Current Time: Apr 25, 2015 at 12:00:31 AM

Latest Report: Apr 24, 2015 at 11:00 PM


Visibility: N/A

Pressure: 30.01 "Hg

Humidity: 79%

Dew point: 73 °F

Location of ItabunaLocation

Historic Weather in Itabuna — Graph

°F

Itabuna temperature yesterday

Maximum temperature yesterday: 86 °F (at 12:00 PM)
Minimum temperature yesterday: 75 °F (at 2:00 AM)
Average temperature yesterday: 80 °F

Past Weeks' High & Low Weather Summary

 TemperatureHumidityPressure
High88 °F (Apr 21, 10:00 AM)100% (Apr 15, 3:00 AM)30.04 "Hg (Apr 15, 3:00 AM)
Low75 °F (Apr 10, 7:00 PM)55% (Apr 11, 2:00 PM)29.83 "Hg (Apr 19, 3:00 PM)
Average82 °F73%29.93 "Hg
* Reported Apr 9 10:00 PM — Apr 24 10:00 PM, Itabuna, Weather by CustomWeather, © 2015

Note: Actual official high and low records may vary slightly from our data, if they occured in-between our weather recording intervals... More about our weather records

Advertising

Itabuna weather history for previous 24 hours

 ConditionsComfort  
Time TempWeatherWind HumidityBarometerVisibility
10:00 PM
Fri, Apr 24
81 °FPassing clouds.9 mph79%30.01 "HgN/A
9:00 PM81 °FPassing clouds.6 mph79%30.01 "HgN/A
8:00 PM81 °FPassing clouds.6 mph79%29.98 "HgN/A
7:00 PM81 °FPassing clouds.7 mph79%29.95 "HgN/A
6:00 PM81 °FPassing clouds.7 mph74%29.95 "HgN/A
5:00 PM81 °FPassing clouds.7 mph74%29.95 "HgN/A
4:00 PM81 °FScattered clouds.5 mph79%29.92 "HgN/A
3:00 PM79 °FScattered showers. Fog.5 mph84%29.92 "Hg3 mi
2:00 PM82 °FScattered showers. Broken clouds.10 mph74%29.95 "Hg5 mi
1:00 PM84 °FScattered showers. Scattered clouds.10 mph70%29.95 "HgN/A
12:00 PM86 °FBroken clouds.5 mph62%29.98 "HgN/A
11:00 AM81 °FScattered clouds.7 mph79%29.98 "HgN/A
10:00 AM81 °FBroken clouds.8 mph74%30.01 "HgN/A
9:00 AM82 °FBroken clouds.5 mph74%30.01 "HgN/A
8:00 AM79 °FScattered clouds.5 mph84%29.98 "HgN/A
7:00 AM79 °FPartly sunny.2 mph84%29.95 "HgN/A
6:00 AM77 °FScattered clouds.2 mph83%29.95 "HgN/A
5:00 AM77 °FPassing clouds.2 mph83%29.92 "HgN/A
4:00 AM77 °FPassing clouds.9 mph83%29.92 "HgN/A
3:00 AM77 °FPassing clouds.2 mph89%29.92 "HgN/A
2:00 AM75 °FLight rain. Partly cloudy.6 mph89%29.92 "Hg4 mi
1:00 AM81 °FPassing clouds.7 mph79%29.95 "HgN/A
12:00 AM82 °FPassing clouds.9 mph74%29.98 "HgN/A
Weather by CustomWeather, © 2015

See weather overviewHow to use our weather pages